User: anonymous   Login
Location: Unspecified
(0.0000°N, 0.0000°E)
Time: 23:25:14
(UTC+00:00)
Language:

Vanguard 3 - Orbit

View from above orbital plane
View from above orbital plane
View from above satellite
View from above satellite

Ground track
Ground track

The orbit data is extracted from the following two-line orbital elements,

1    20U 59007A   19322.81857080  .00000018  00000-0 -74048-5 0  9995
2    20  33.3502 215.9836 1667240 224.1313 121.3708 11.55691334206149
Epoch (UTC): 18 November 2019 19:38:44
Eccentricity: 0.1667240
inclination: 33.3502°
perigee height: 508 km
apogee height: 3263 km
right ascension of ascending node: 215.9836°
argument of perigee: 224.1313°
revolutions per day: 11.55691334
mean anomaly at epoch: 121.3708°
orbit number at epoch: 20614

The dashed part of the orbit path shows where the satellite is in the earth's shadow,  

DLR